UAL1081 KORD-KPBI

Flight info

Callsign UAL1081
Flight time 2h 28m
Altitude 37000
Route DENNT DARCY DREGS DUMGE SCOTO SWAPP Q79 ZPLEN VUUDU1
Aircraft A320/M-SDE3FGHIRWY/LB1

Departure

Time 2026-04-15 03:37
Airport Chicago O'Hare International Airport (KORD)

Arrival

Time 2026-04-15 06:06
Airport Palm Beach International Airport (KPBI)
Time Latitude Longitude Altitude Speed Heading
2026-04-15 03:20 41.97459 -87.90801 670 ft 0 kts 321°
2026-04-15 03:23 41.97446 -87.90788 670 ft 2 kts 321°
2026-04-15 03:23 41.97434 -87.90774 667 ft 2 kts 321°
2026-04-15 03:23 41.97421 -87.90760 668 ft 2 kts 339°
2026-04-15 03:23 41.97406 -87.90753 667 ft 1 kts 339°
2026-04-15 03:27 41.97412 -87.90759 666 ft 3 kts 320°
2026-04-15 03:28 41.97413 -87.90795 704 ft 5 kts 250°
2026-04-15 03:28 41.97390 -87.90851 670 ft 8 kts 240°
2026-04-15 03:28 41.97350 -87.90921 670 ft 11 kts 221°
2026-04-15 03:28 41.97293 -87.90949 670 ft 8 kts 154°
2026-04-15 03:29 41.97258 -87.90907 670 ft 6 kts 135°
2026-04-15 03:29 41.97233 -87.90869 670 ft 5 kts 131°
2026-04-15 03:29 41.97207 -87.90829 670 ft 5 kts 130°
2026-04-15 03:29 41.97188 -87.90793 668 ft 4 kts 122°
2026-04-15 03:30 41.97168 -87.90735 670 ft 10 kts 112°
2026-04-15 03:30 41.97151 -87.90637 670 ft 11 kts 93°
2026-04-15 03:30 41.97146 -87.90534 668 ft 10 kts 95°
2026-04-15 03:30 41.97111 -87.90483 670 ft 9 kts 183°
2026-04-15 03:31 41.97051 -87.90464 670 ft 10 kts 131°
2026-04-15 03:31 41.97042 -87.90354 670 ft 12 kts 89°
2026-04-15 03:31 41.97043 -87.90253 670 ft 10 kts 89°
2026-04-15 03:31 41.97043 -87.90141 670 ft 14 kts 90°
2026-04-15 03:32 41.97043 -87.90017 670 ft 13 kts 89°
2026-04-15 03:32 41.97043 -87.89902 670 ft 12 kts 89°
2026-04-15 03:32 41.97044 -87.89789 670 ft 12 kts 90°
2026-04-15 03:32 41.97044 -87.89673 670 ft 13 kts 90°
2026-04-15 03:33 41.97044 -87.89552 670 ft 13 kts 90°
2026-04-15 03:33 41.97044 -87.89420 670 ft 15 kts 90°
2026-04-15 03:33 41.97044 -87.89276 669 ft 16 kts 90°
2026-04-15 03:33 41.97044 -87.89118 669 ft 18 kts 89°
2026-04-15 03:34 41.97046 -87.88950 668 ft 19 kts 89°
2026-04-15 03:34 41.97045 -87.88765 668 ft 20 kts 91°
2026-04-15 03:34 41.97045 -87.88572 668 ft 19 kts 89°
2026-04-15 03:34 41.97046 -87.88397 668 ft 17 kts 89°
2026-04-15 03:35 41.97046 -87.88240 669 ft 15 kts 92°
2026-04-15 03:35 41.97045 -87.88180 670 ft 6 kts 91°
2026-04-15 03:35 41.97044 -87.88111 670 ft 8 kts 88°
2026-04-15 03:35 41.97018 -87.88039 669 ft 10 kts 135°
2026-04-15 03:36 41.96976 -87.87997 669 ft 4 kts 193°
2026-04-15 03:36 41.96969 -87.88006 670 ft 0 kts 220°
2026-04-15 03:36 41.96965 -87.88011 670 ft 5 kts 220°
2026-04-15 03:36 41.96792 -87.88217 667 ft 75 kts 221°
2026-04-15 03:37 41.96206 -87.88915 671 ft 146 kts 221°
2026-04-15 03:37 41.95334 -87.89959 1011 ft 174 kts 227°
2026-04-15 03:37 41.94431 -87.91023 1956 ft 170 kts 223°
2026-04-15 03:37 41.93533 -87.92068 2782 ft 178 kts 225°
2026-04-15 03:38 41.92530 -87.93180 3091 ft 197 kts 223°
2026-04-15 03:38 41.91415 -87.94391 3329 ft 222 kts 223°
2026-04-15 03:38 41.90160 -87.95782 3727 ft 245 kts 220°
2026-04-15 03:38 41.88555 -87.96642 4663 ft 258 kts 193°
2026-04-15 03:39 41.86704 -87.96369 5478 ft 278 kts 170°
2026-04-15 03:39 41.84863 -87.95457 6309 ft 285 kts 166°
2026-04-15 03:39 41.83005 -87.94492 7104 ft 287 kts 166°
2026-04-15 03:39 41.81126 -87.93514 7801 ft 294 kts 166°
2026-04-15 03:40 41.79214 -87.92499 8585 ft 297 kts 166°
2026-04-15 03:40 41.77288 -87.91447 9356 ft 301 kts 165°
2026-04-15 03:40 41.75340 -87.90375 10056 ft 305 kts 165°
2026-04-15 03:40 41.73400 -87.89281 10781 ft 308 kts 164°
2026-04-15 03:41 41.71438 -87.88106 11498 ft 310 kts 162°
2026-04-15 03:41 41.69438 -87.86905 11922 ft 323 kts 165°
2026-04-15 03:41 41.67276 -87.85791 12094 ft 343 kts 167°
2026-04-15 03:41 41.64972 -87.84696 12282 ft 361 kts 167°
2026-04-15 03:42 41.62587 -87.83539 12798 ft 368 kts 166°
2026-04-15 03:42 41.60172 -87.82296 13381 ft 374 kts 165°
2026-04-15 03:42 41.57742 -87.81013 13979 ft 377 kts 165°
2026-04-15 03:42 41.55335 -87.79709 14549 ft 380 kts 164°
2026-04-15 03:43 41.52886 -87.78350 15120 ft 382 kts 164°
2026-04-15 03:43 41.50418 -87.77007 15677 ft 384 kts 165°
2026-04-15 03:43 41.47932 -87.75659 16258 ft 387 kts 165°
2026-04-15 03:43 41.45435 -87.74307 16813 ft 389 kts 165°
2026-04-15 03:44 41.42890 -87.73078 17333 ft 387 kts 172°
2026-04-15 03:44 41.40258 -87.72513 17928 ft 381 kts 184°
2026-04-15 03:44 41.37625 -87.72568 18414 ft 380 kts 189°
2026-04-15 03:44 41.35003 -87.72670 18927 ft 383 kts 187°
2026-04-15 03:45 41.32325 -87.72680 19456 ft 387 kts 186°
2026-04-15 03:45 41.29618 -87.72646 19993 ft 391 kts 186°
2026-04-15 03:45 41.26890 -87.72606 20509 ft 394 kts 186°
2026-04-15 03:45 41.24139 -87.72579 21009 ft 397 kts 187°
2026-04-15 03:46 41.21372 -87.72568 21493 ft 400 kts 187°
2026-04-15 03:46 41.18566 -87.72356 21945 ft 408 kts 181°
2026-04-15 03:46 41.15735 -87.71980 22399 ft 411 kts 181°
2026-04-15 03:46 41.12914 -87.71600 22841 ft 414 kts 181°
2026-04-15 03:47 41.10037 -87.71210 23273 ft 417 kts 181°
2026-04-15 03:47 41.07139 -87.70820 23649 ft 420 kts 181°
2026-04-15 03:47 41.04221 -87.70430 24002 ft 423 kts 181°
2026-04-15 03:47 41.01280 -87.70034 24362 ft 426 kts 181°
2026-04-15 03:48 40.98325 -87.69633 24712 ft 428 kts 181°
2026-04-15 03:48 40.95358 -87.69231 25052 ft 430 kts 181°
2026-04-15 03:48 40.92368 -87.68828 25394 ft 433 kts 181°
2026-04-15 03:48 40.89402 -87.68430 25724 ft 435 kts 181°
2026-04-15 03:49 40.86383 -87.68027 26048 ft 437 kts 181°
2026-04-15 03:49 40.83346 -87.67624 26381 ft 440 kts 181°
2026-04-15 03:49 40.80295 -87.67217 26701 ft 442 kts 181°
2026-04-15 03:49 40.77221 -87.66804 27019 ft 445 kts 181°
2026-04-15 03:50 40.74133 -87.66388 27332 ft 448 kts 181°
2026-04-15 03:50 40.71023 -87.65969 27640 ft 450 kts 181°
2026-04-15 03:50 40.67896 -87.65552 27953 ft 453 kts 181°
2026-04-15 03:50 40.64752 -87.65135 28250 ft 456 kts 181°
2026-04-15 03:51 40.61628 -87.64722 28546 ft 458 kts 181°
2026-04-15 03:51 40.58448 -87.64301 28846 ft 460 kts 181°
2026-04-15 03:51 40.55257 -87.63878 29190 ft 462 kts 181°
2026-04-15 03:51 40.52062 -87.63450 29640 ft 461 kts 181°
2026-04-15 03:52 40.48874 -87.63022 30061 ft 460 kts 181°
2026-04-15 03:52 40.45690 -87.62597 30430 ft 460 kts 181°
2026-04-15 03:52 40.42505 -87.62177 30795 ft 460 kts 181°
2026-04-15 03:52 40.39325 -87.61758 31156 ft 459 kts 182°
2026-04-15 03:53 40.36150 -87.61341 31531 ft 459 kts 182°
2026-04-15 03:53 40.33020 -87.60761 31912 ft 464 kts 175°
2026-04-15 03:53 40.29902 -87.59552 32307 ft 472 kts 165°
2026-04-15 03:53 40.26895 -87.57748 32691 ft 477 kts 161°
2026-04-15 03:54 40.23915 -87.55839 33069 ft 476 kts 161°
2026-04-15 03:54 40.20943 -87.53938 33457 ft 475 kts 161°
2026-04-15 03:54 40.17974 -87.52048 33846 ft 474 kts 161°
2026-04-15 03:55 40.12040 -87.48291 34498 ft 473 kts 161°
2026-04-15 03:55 40.09087 -87.46423 34805 ft 472 kts 161°
2026-04-15 03:55 40.06174 -87.44583 35102 ft 471 kts 161°
2026-04-15 03:55 40.03227 -87.42723 35409 ft 470 kts 161°
2026-04-15 03:56 40.00291 -87.40870 35699 ft 469 kts 162°
2026-04-15 03:56 39.97360 -87.39013 35989 ft 468 kts 161°
2026-04-15 03:56 39.94450 -87.37112 36272 ft 468 kts 160°
2026-04-15 03:56 39.91559 -87.35169 36549 ft 468 kts 160°
2026-04-15 03:57 39.88679 -87.33205 36811 ft 467 kts 160°
2026-04-15 03:57 39.82932 -87.29284 36917 ft 473 kts 160°
2026-04-15 03:58 39.77070 -87.25344 36922 ft 475 kts 160°
2026-04-15 03:58 39.71192 -87.21415 36929 ft 475 kts 160°
2026-04-15 03:59 39.65315 -87.17490 36942 ft 475 kts 160°
2026-04-15 03:59 39.59478 -87.13605 36946 ft 475 kts 160°
2026-04-15 04:00 39.53593 -87.09698 36947 ft 475 kts 160°
2026-04-15 04:00 39.47710 -87.05789 36946 ft 475 kts 160°
2026-04-15 04:01 39.41819 -87.01884 36954 ft 476 kts 160°
2026-04-15 04:01 39.35967 -86.98016 36957 ft 476 kts 159°
2026-04-15 04:02 39.30072 -86.94133 36970 ft 476 kts 159°
2026-04-15 04:02 39.24176 -86.90251 36976 ft 475 kts 159°
2026-04-15 04:03 39.18287 -86.86378 36988 ft 475 kts 159°
2026-04-15 04:03 39.12406 -86.82471 37002 ft 476 kts 159°
2026-04-15 04:04 39.06596 -86.78497 37002 ft 476 kts 158°
2026-04-15 04:04 39.00748 -86.74497 37005 ft 476 kts 159°
2026-04-15 04:05 38.94894 -86.70529 37004 ft 476 kts 159°
2026-04-15 04:05 38.89037 -86.66575 37022 ft 475 kts 159°
2026-04-15 04:06 38.83224 -86.62654 37028 ft 475 kts 159°
2026-04-15 04:06 38.77380 -86.58718 37030 ft 474 kts 159°
2026-04-15 04:07 38.71536 -86.54787 37030 ft 474 kts 159°
2026-04-15 04:07 38.65689 -86.50879 37047 ft 474 kts 159°
2026-04-15 04:08 38.59886 -86.46997 37052 ft 474 kts 159°
2026-04-15 04:08 38.54046 -86.43088 37052 ft 474 kts 159°
2026-04-15 04:09 38.48203 -86.39194 37043 ft 473 kts 159°
2026-04-15 04:09 38.42366 -86.35305 37034 ft 473 kts 159°
2026-04-15 04:10 38.36560 -86.31456 37029 ft 474 kts 159°
2026-04-15 04:10 38.30718 -86.27571 37023 ft 473 kts 159°
2026-04-15 04:11 38.24871 -86.23698 37021 ft 474 kts 159°
2026-04-15 04:11 38.19020 -86.19835 37027 ft 474 kts 159°
2026-04-15 04:12 38.13204 -86.16002 37036 ft 474 kts 159°
2026-04-15 04:12 38.07348 -86.12149 37053 ft 474 kts 159°
2026-04-15 04:13 38.01492 -86.08298 37055 ft 474 kts 159°
2026-04-15 04:13 37.95634 -86.04454 37056 ft 474 kts 159°
2026-04-15 04:14 37.89813 -86.00642 37048 ft 474 kts 159°
2026-04-15 04:14 37.83953 -85.96810 37053 ft 474 kts 159°
2026-04-15 04:15 37.78099 -85.92986 37078 ft 474 kts 159°
2026-04-15 04:15 37.72242 -85.89174 37076 ft 474 kts 159°
2026-04-15 04:16 37.66419 -85.85388 37073 ft 474 kts 159°
2026-04-15 04:16 37.60549 -85.81578 37076 ft 474 kts 159°
2026-04-15 04:17 37.54674 -85.77777 37073 ft 475 kts 159°
2026-04-15 04:17 37.48793 -85.73972 37070 ft 475 kts 159°
2026-04-15 04:18 37.42902 -85.70176 37076 ft 476 kts 160°
2026-04-15 04:18 37.37046 -85.66406 37101 ft 476 kts 159°
2026-04-15 04:19 37.31153 -85.62607 37116 ft 476 kts 159°
2026-04-15 04:19 37.25258 -85.58818 37120 ft 476 kts 159°
2026-04-15 04:20 37.19356 -85.55042 37124 ft 476 kts 159°
2026-04-15 04:20 37.13492 -85.51290 37120 ft 476 kts 159°
2026-04-15 04:21 37.07590 -85.47517 37116 ft 476 kts 159°
2026-04-15 04:21 37.01681 -85.43748 37115 ft 477 kts 159°
2026-04-15 04:22 36.95769 -85.39982 37116 ft 477 kts 159°
2026-04-15 04:22 36.89902 -85.36253 37126 ft 476 kts 159°
2026-04-15 04:23 36.83988 -85.32507 37129 ft 476 kts 159°
2026-04-15 04:23 36.78085 -85.28763 37129 ft 476 kts 159°
2026-04-15 04:24 36.72178 -85.25036 37137 ft 476 kts 159°
2026-04-15 04:24 36.66267 -85.21311 37141 ft 476 kts 159°
2026-04-15 04:25 36.60287 -85.18043 37138 ft 467 kts 171°
2026-04-15 04:25 36.53998 -85.16301 37142 ft 463 kts 175°
2026-04-15 04:26 36.47688 -85.14671 37144 ft 463 kts 175°
2026-04-15 04:26 36.41376 -85.13049 37145 ft 464 kts 175°
2026-04-15 04:27 36.35098 -85.11429 37148 ft 464 kts 174°
2026-04-15 04:27 36.28776 -85.09789 37155 ft 464 kts 174°
2026-04-15 04:28 36.22452 -85.08153 37166 ft 464 kts 174°
2026-04-15 04:28 36.16129 -85.06523 37178 ft 464 kts 174°
2026-04-15 04:29 36.09840 -85.04918 37189 ft 465 kts 174°
2026-04-15 04:29 36.03503 -85.03306 37198 ft 465 kts 174°
2026-04-15 04:30 35.97163 -85.01682 37199 ft 466 kts 174°
2026-04-15 04:30 35.90808 -85.00049 37205 ft 466 kts 174°
2026-04-15 04:31 35.84503 -84.98442 37194 ft 466 kts 174°
2026-04-15 04:31 35.78145 -84.96826 37185 ft 466 kts 174°
2026-04-15 04:32 35.71790 -84.95209 37179 ft 467 kts 174°
2026-04-15 04:32 35.65425 -84.93599 37166 ft 467 kts 174°
2026-04-15 04:33 35.59105 -84.91996 37154 ft 467 kts 174°
2026-04-15 04:33 35.52730 -84.90385 37168 ft 468 kts 174°
2026-04-15 04:34 35.46350 -84.88767 37163 ft 468 kts 174°
2026-04-15 04:34 35.39970 -84.87153 37166 ft 468 kts 173°
2026-04-15 04:35 35.33633 -84.85555 37173 ft 468 kts 173°
2026-04-15 04:35 35.27252 -84.83946 37175 ft 468 kts 173°
2026-04-15 04:36 35.20863 -84.82342 37176 ft 469 kts 173°
2026-04-15 04:36 35.14476 -84.80741 37183 ft 469 kts 173°
2026-04-15 04:37 35.08081 -84.79138 37181 ft 469 kts 173°
2026-04-15 04:37 35.01735 -84.77544 37185 ft 469 kts 173°
2026-04-15 04:38 34.95348 -84.75941 37197 ft 469 kts 173°
2026-04-15 04:38 34.88959 -84.74350 37207 ft 468 kts 173°
2026-04-15 04:39 34.82575 -84.72769 37209 ft 468 kts 173°
2026-04-15 04:39 34.76240 -84.71201 37216 ft 468 kts 173°
2026-04-15 04:40 34.69862 -84.69616 37209 ft 468 kts 173°
2026-04-15 04:40 34.63484 -84.68031 37205 ft 468 kts 173°
2026-04-15 04:41 34.57102 -84.66447 37195 ft 468 kts 172°
2026-04-15 04:41 34.50783 -84.64815 37200 ft 468 kts 172°
2026-04-15 04:42 34.44420 -84.63121 37215 ft 468 kts 172°
2026-04-15 04:42 34.38056 -84.61445 37228 ft 468 kts 172°
2026-04-15 04:43 34.31735 -84.59797 37232 ft 467 kts 172°
2026-04-15 04:43 34.25374 -84.58152 37240 ft 467 kts 172°
2026-04-15 04:44 34.19017 -84.56499 37224 ft 467 kts 172°
2026-04-15 04:44 34.12659 -84.54847 37234 ft 467 kts 171°
2026-04-15 04:45 34.06309 -84.53198 37251 ft 467 kts 171°
2026-04-15 04:45 34.00002 -84.51598 37250 ft 466 kts 172°
2026-04-15 04:46 33.93627 -84.50187 37243 ft 465 kts 173°
2026-04-15 04:46 33.84098 -84.48185 37228 ft 465 kts 173°
2026-04-15 04:47 33.77733 -84.46789 37221 ft 465 kts 173°
2026-04-15 04:47 33.71362 -84.45370 37236 ft 465 kts 173°
2026-04-15 04:48 33.64989 -84.43962 37236 ft 466 kts 173°
2026-04-15 04:48 33.58785 -84.41852 37237 ft 468 kts 164°
2026-04-15 04:49 33.52603 -84.39362 37231 ft 469 kts 164°
2026-04-15 04:49 33.46421 -84.36883 37263 ft 468 kts 164°
2026-04-15 04:50 33.40242 -84.34399 37263 ft 468 kts 164°
2026-04-15 04:50 33.35110 -84.32347 37266 ft 468 kts 164°
2026-04-15 04:51 33.27927 -84.29481 37260 ft 468 kts 163°
2026-04-15 04:51 33.21751 -84.27011 37250 ft 468 kts 164°
2026-04-15 04:52 33.15574 -84.24554 37233 ft 468 kts 164°
2026-04-15 04:52 33.10442 -84.22513 37243 ft 468 kts 163°
2026-04-15 04:53 33.03262 -84.19663 37247 ft 467 kts 163°
2026-04-15 04:53 32.97094 -84.17219 37250 ft 467 kts 163°
2026-04-15 04:54 32.91966 -84.15188 37247 ft 467 kts 163°
2026-04-15 04:54 32.85799 -84.12748 37243 ft 467 kts 163°
2026-04-15 04:55 32.79638 -84.10312 37235 ft 467 kts 163°
2026-04-15 04:55 32.73477 -84.07879 37221 ft 466 kts 163°
2026-04-15 04:56 32.67362 -84.05478 37213 ft 466 kts 163°
2026-04-15 04:56 32.61497 -84.03176 37220 ft 465 kts 163°
2026-04-15 04:57 32.55350 -84.00761 37227 ft 465 kts 163°
2026-04-15 04:57 32.49211 -83.98356 37228 ft 465 kts 163°
2026-04-15 04:58 32.43077 -83.95951 37227 ft 464 kts 164°
2026-04-15 04:58 32.36992 -83.93575 37227 ft 463 kts 164°
2026-04-15 04:59 32.30876 -83.91185 37218 ft 463 kts 163°
2026-04-15 04:59 32.24760 -83.88796 37214 ft 463 kts 163°
2026-04-15 05:00 32.18648 -83.86411 37222 ft 462 kts 163°
2026-04-15 05:00 32.12575 -83.84055 37228 ft 462 kts 163°
2026-04-15 05:01 32.06466 -83.81689 37234 ft 462 kts 163°
2026-04-15 05:01 32.00355 -83.79316 37237 ft 462 kts 163°
2026-04-15 05:02 31.94242 -83.76948 37239 ft 462 kts 163°
2026-04-15 05:02 31.88172 -83.74599 37233 ft 462 kts 163°
2026-04-15 05:03 31.82057 -83.72246 37226 ft 462 kts 163°
2026-04-15 05:03 31.75940 -83.69892 37221 ft 462 kts 163°
2026-04-15 05:04 31.69832 -83.67534 37216 ft 462 kts 163°
2026-04-15 05:04 31.63712 -83.65182 37221 ft 463 kts 163°
2026-04-15 05:05 31.57633 -83.62849 37232 ft 463 kts 164°
2026-04-15 05:05 31.51514 -83.60499 37240 ft 463 kts 164°
2026-04-15 05:06 31.45389 -83.58156 37243 ft 463 kts 164°
2026-04-15 05:06 31.39268 -83.55820 37243 ft 463 kts 164°
2026-04-15 05:07 31.33191 -83.53498 37243 ft 463 kts 164°
2026-04-15 05:07 31.27075 -83.51157 37238 ft 463 kts 164°
2026-04-15 05:08 31.20957 -83.48828 37231 ft 462 kts 165°
2026-04-15 05:08 31.14835 -83.46511 37227 ft 462 kts 165°
2026-04-15 05:09 31.08718 -83.44191 37222 ft 462 kts 165°
2026-04-15 05:09 31.02649 -83.41878 37222 ft 462 kts 165°
2026-04-15 05:10 30.96533 -83.39557 37225 ft 462 kts 165°
2026-04-15 05:10 30.90418 -83.37252 37233 ft 462 kts 165°
2026-04-15 05:11 30.84300 -83.34951 37234 ft 462 kts 165°
2026-04-15 05:11 30.78324 -83.32688 37235 ft 462 kts 165°
2026-04-15 05:12 30.72217 -83.30373 37229 ft 462 kts 165°
2026-04-15 05:12 30.66338 -83.27407 37232 ft 465 kts 158°
2026-04-15 05:13 30.60478 -83.24245 37230 ft 464 kts 158°
2026-04-15 05:13 30.54610 -83.21086 37231 ft 465 kts 159°
2026-04-15 05:14 30.48780 -83.17954 37233 ft 465 kts 159°
2026-04-15 05:14 30.42917 -83.14803 37233 ft 465 kts 159°
2026-04-15 05:15 30.37046 -83.11663 37237 ft 465 kts 159°
2026-04-15 05:15 30.31177 -83.08523 37241 ft 465 kts 159°
2026-04-15 05:16 30.25305 -83.05382 37245 ft 465 kts 159°
2026-04-15 05:16 30.19475 -83.02277 37246 ft 465 kts 159°
2026-04-15 05:17 30.13604 -82.99149 37250 ft 464 kts 159°
2026-04-15 05:17 30.07739 -82.96023 37249 ft 464 kts 159°
2026-04-15 05:18 30.01879 -82.92898 37253 ft 464 kts 159°
2026-04-15 05:18 29.96058 -82.89804 37252 ft 463 kts 159°
2026-04-15 05:19 29.90201 -82.86701 37252 ft 463 kts 159°
2026-04-15 05:19 29.84348 -82.83610 37248 ft 463 kts 158°
2026-04-15 05:20 29.78494 -82.80515 37247 ft 463 kts 158°
2026-04-15 05:20 29.72687 -82.77441 37246 ft 463 kts 158°
2026-04-15 05:21 29.66837 -82.74353 37252 ft 462 kts 158°
2026-04-15 05:21 29.60993 -82.71273 37246 ft 462 kts 158°
2026-04-15 05:22 29.55179 -82.68220 37244 ft 462 kts 158°
2026-04-15 05:22 29.49328 -82.65153 37240 ft 462 kts 158°
2026-04-15 05:23 29.43471 -82.62075 37240 ft 463 kts 158°
2026-04-15 05:23 29.37613 -82.58999 37237 ft 463 kts 158°
2026-04-15 05:24 29.31747 -82.55928 37241 ft 464 kts 158°
2026-04-15 05:24 29.25857 -82.53044 37247 ft 462 kts 166°
2026-04-15 05:25 29.19595 -82.51626 37246 ft 459 kts 174°
2026-04-15 05:25 29.13286 -82.50495 37247 ft 459 kts 174°
2026-04-15 05:26 29.06977 -82.49359 37248 ft 459 kts 173°
2026-04-15 05:26 29.00705 -82.48220 37249 ft 459 kts 173°
2026-04-15 05:27 28.94393 -82.47062 37250 ft 459 kts 173°
2026-04-15 05:27 28.88077 -82.45921 37250 ft 460 kts 173°
2026-04-15 05:28 28.81752 -82.44783 37261 ft 460 kts 173°
2026-04-15 05:28 28.75471 -82.43647 37256 ft 460 kts 173°
2026-04-15 05:29 28.69148 -82.42511 37253 ft 460 kts 173°
2026-04-15 05:29 28.62820 -82.41372 37243 ft 461 kts 173°
2026-04-15 05:30 28.56485 -82.40238 37244 ft 461 kts 173°
2026-04-15 05:30 28.50144 -82.39098 37244 ft 461 kts 173°
2026-04-15 05:31 28.43845 -82.37962 37243 ft 461 kts 173°
2026-04-15 05:31 28.37501 -82.36828 37243 ft 462 kts 173°
2026-04-15 05:32 28.31146 -82.35699 37251 ft 462 kts 173°
2026-04-15 05:32 28.24786 -82.34566 37247 ft 463 kts 173°
2026-04-15 05:33 28.18469 -82.33433 37252 ft 463 kts 173°
2026-04-15 05:33 28.12094 -82.32293 37225 ft 464 kts 173°
2026-04-15 05:34 28.05722 -82.31161 37223 ft 464 kts 173°
2026-04-15 05:34 27.99439 -82.29446 37231 ft 466 kts 165°
2026-04-15 05:35 27.93265 -82.27351 37204 ft 467 kts 165°
2026-04-15 05:35 27.90107 -82.26285 36970 ft 479 kts 165°
2026-04-15 05:35 27.86891 -82.25197 36716 ft 486 kts 165°
2026-04-15 05:36 27.83642 -82.24100 36339 ft 487 kts 163°
2026-04-15 05:36 27.80390 -82.23003 35502 ft 490 kts 163°
2026-04-15 05:36 27.77131 -82.21904 34816 ft 487 kts 163°
2026-04-15 05:36 27.73863 -82.20798 33801 ft 492 kts 163°
2026-04-15 05:37 27.70615 -82.19699 33321 ft 483 kts 163°
2026-04-15 05:37 27.67453 -82.18631 32607 ft 481 kts 163°
2026-04-15 05:37 27.64240 -82.17547 31728 ft 483 kts 162°
2026-04-15 05:37 27.61024 -82.16467 31062 ft 480 kts 162°
2026-04-15 05:38 27.57838 -82.15405 30500 ft 476 kts 162°
2026-04-15 05:38 27.54669 -82.14359 29866 ft 472 kts 163°
2026-04-15 05:38 27.51538 -82.13333 29296 ft 466 kts 163°
2026-04-15 05:38 27.48444 -82.12321 28726 ft 461 kts 163°
2026-04-15 05:39 27.45383 -82.11319 28168 ft 455 kts 163°
2026-04-15 05:39 27.42396 -82.10339 27614 ft 451 kts 163°
2026-04-15 05:39 27.39403 -82.09359 27070 ft 447 kts 163°
2026-04-15 05:39 27.36433 -82.08386 26535 ft 442 kts 163°
2026-04-15 05:40 27.33492 -82.07418 26057 ft 437 kts 163°
2026-04-15 05:40 27.30615 -82.06461 25813 ft 427 kts 163°
2026-04-15 05:40 27.27793 -82.05516 25549 ft 420 kts 163°
2026-04-15 05:40 27.25003 -82.04580 25321 ft 418 kts 163°
2026-04-15 05:41 27.22223 -82.03645 25095 ft 416 kts 163°
2026-04-15 05:41 27.19453 -82.02714 24859 ft 415 kts 163°
2026-04-15 05:41 27.16730 -82.01801 24637 ft 413 kts 163°
2026-04-15 05:41 27.13979 -82.00883 24428 ft 412 kts 163°
2026-04-15 05:42 27.11236 -81.99970 24205 ft 410 kts 163°
2026-04-15 05:42 27.08501 -81.99060 23984 ft 409 kts 163°
2026-04-15 05:42 27.05848 -81.97931 23763 ft 407 kts 153°
2026-04-15 05:42 27.03434 -81.96301 23502 ft 405 kts 142°
2026-04-15 05:43 27.01329 -81.94228 23237 ft 402 kts 132°
2026-04-15 05:43 26.99524 -81.91841 22981 ft 401 kts 128°
2026-04-15 05:43 26.97755 -81.89432 22719 ft 400 kts 129°
2026-04-15 05:43 26.96010 -81.87065 22466 ft 398 kts 129°
2026-04-15 05:44 26.94249 -81.84681 22213 ft 397 kts 129°
2026-04-15 05:44 26.92489 -81.82304 21958 ft 395 kts 129°
2026-04-15 05:44 26.90737 -81.79937 21705 ft 394 kts 129°
2026-04-15 05:44 26.88991 -81.77580 21455 ft 393 kts 129°
2026-04-15 05:45 26.87250 -81.75229 21210 ft 391 kts 129°
2026-04-15 05:45 26.85515 -81.72890 20969 ft 390 kts 129°
2026-04-15 05:45 26.83788 -81.70603 20723 ft 389 kts 129°
2026-04-15 05:45 26.82032 -81.68310 20473 ft 388 kts 130°
2026-04-15 05:46 26.80277 -81.66025 20241 ft 386 kts 130°
2026-04-15 05:46 26.78526 -81.63744 20004 ft 385 kts 129°
2026-04-15 05:46 26.76786 -81.61472 19765 ft 384 kts 129°
2026-04-15 05:46 26.75051 -81.59201 19535 ft 383 kts 129°
2026-04-15 05:47 26.73322 -81.56936 19311 ft 382 kts 129°
2026-04-15 05:47 26.71600 -81.54681 19084 ft 381 kts 129°
2026-04-15 05:47 26.70027 -81.52308 18853 ft 378 kts 118°
2026-04-15 05:47 26.68997 -81.49665 18634 ft 375 kts 105°
2026-04-15 05:48 26.68527 -81.46814 18395 ft 372 kts 92°
2026-04-15 05:48 26.68638 -81.43947 18136 ft 368 kts 79°
2026-04-15 05:48 26.69223 -81.41174 17771 ft 366 kts 73°
2026-04-15 05:48 26.69868 -81.38432 17334 ft 363 kts 73°
2026-04-15 05:49 26.70509 -81.35713 16899 ft 361 kts 73°
2026-04-15 05:49 26.71145 -81.33012 16459 ft 358 kts 73°
2026-04-15 05:49 26.71776 -81.30326 16035 ft 356 kts 73°
2026-04-15 05:49 26.72399 -81.27657 15612 ft 354 kts 74°
2026-04-15 05:50 26.73007 -81.25040 15193 ft 351 kts 74°
2026-04-15 05:50 26.73622 -81.22401 14831 ft 348 kts 74°
2026-04-15 05:50 26.74844 -81.17174 14416 ft 347 kts 74°
2026-04-15 05:51 26.75453 -81.14565 14196 ft 346 kts 74°
2026-04-15 05:51 26.76058 -81.11964 13974 ft 345 kts 74°
2026-04-15 05:51 26.76660 -81.09371 13730 ft 344 kts 74°
2026-04-15 05:51 26.77261 -81.06787 13501 ft 343 kts 74°
2026-04-15 05:52 26.77852 -81.04241 13287 ft 342 kts 74°
2026-04-15 05:52 26.78443 -81.01668 13066 ft 341 kts 76°
2026-04-15 05:52 26.78756 -80.99039 12686 ft 343 kts 85°
2026-04-15 05:52 26.78880 -80.96368 12199 ft 342 kts 86°
2026-04-15 05:53 26.78992 -80.93727 11794 ft 338 kts 86°
2026-04-15 05:53 26.79100 -80.91102 11342 ft 336 kts 86°
2026-04-15 05:53 26.79205 -80.88530 11105 ft 327 kts 86°
2026-04-15 05:53 26.79311 -80.85973 10420 ft 327 kts 87°
2026-04-15 05:54 26.79415 -80.83505 10195 ft 307 kts 87°
2026-04-15 05:54 26.79514 -80.81202 10061 ft 297 kts 87°
2026-04-15 05:54 26.79610 -80.78910 9838 ft 295 kts 87°
2026-04-15 05:54 26.79601 -80.76620 9472 ft 294 kts 97°
2026-04-15 05:55 26.79115 -80.74420 9140 ft 291 kts 110°
2026-04-15 05:55 26.78401 -80.72305 8816 ft 289 kts 110°
2026-04-15 05:55 26.77699 -80.70203 8491 ft 287 kts 110°
2026-04-15 05:55 26.77007 -80.68115 8167 ft 286 kts 110°
2026-04-15 05:56 26.76323 -80.66055 7851 ft 285 kts 110°
2026-04-15 05:56 26.75633 -80.63978 7535 ft 284 kts 110°
2026-04-15 05:56 26.74950 -80.61914 7209 ft 283 kts 110°
2026-04-15 05:56 26.74264 -80.59853 6890 ft 281 kts 110°
2026-04-15 05:57 26.73596 -80.57857 6575 ft 268 kts 110°
2026-04-15 05:57 26.72941 -80.55957 6267 ft 256 kts 111°
2026-04-15 05:57 26.72306 -80.54146 5981 ft 245 kts 111°
2026-04-15 05:57 26.71696 -80.52410 5705 ft 237 kts 111°
2026-04-15 05:58 26.71093 -80.50696 5458 ft 236 kts 111°
2026-04-15 05:58 26.70498 -80.48997 5184 ft 233 kts 111°
2026-04-15 05:58 26.70054 -80.47265 4921 ft 231 kts 97°
2026-04-15 05:58 26.69947 -80.45511 4821 ft 225 kts 94°
2026-04-15 05:59 26.69857 -80.43820 4808 ft 211 kts 94°
2026-04-15 05:59 26.69725 -80.42238 4805 ft 200 kts 97°
2026-04-15 05:59 26.69602 -80.40695 4819 ft 199 kts 94°
2026-04-15 05:59 26.69523 -80.39159 4845 ft 198 kts 93°
2026-04-15 06:00 26.69456 -80.37623 4667 ft 197 kts 93°
2026-04-15 06:00 26.69392 -80.36102 4443 ft 195 kts 93°
2026-04-15 06:00 26.69329 -80.34597 4197 ft 193 kts 93°
2026-04-15 06:00 26.69268 -80.33121 3945 ft 192 kts 93°
2026-04-15 06:01 26.69206 -80.31638 3699 ft 190 kts 93°
2026-04-15 06:01 26.69144 -80.30164 3452 ft 189 kts 93°
2026-04-15 06:01 26.69082 -80.28698 3206 ft 188 kts 93°
2026-04-15 06:01 26.69021 -80.27243 2956 ft 187 kts 93°
2026-04-15 06:02 26.68960 -80.25798 2712 ft 185 kts 92°
2026-04-15 06:02 26.68900 -80.24368 2469 ft 183 kts 93°
2026-04-15 06:02 26.68840 -80.22953 2219 ft 179 kts 92°
2026-04-15 06:02 26.68783 -80.21627 1998 ft 168 kts 92°
2026-04-15 06:03 26.68729 -80.20367 1760 ft 155 kts 92°
2026-04-15 06:03 26.68680 -80.19227 1592 ft 140 kts 92°
2026-04-15 06:03 26.68635 -80.18163 1413 ft 135 kts 92°
2026-04-15 06:03 26.68591 -80.17128 1237 ft 132 kts 92°
2026-04-15 06:04 26.68545 -80.16105 1066 ft 132 kts 92°
2026-04-15 06:04 26.68492 -80.15084 864 ft 131 kts 94°
2026-04-15 06:04 26.68465 -80.14064 688 ft 132 kts 93°
2026-04-15 06:04 26.68431 -80.13054 485 ft 131 kts 94°
2026-04-15 06:05 26.68368 -80.12041 306 ft 130 kts 92°
2026-04-15 06:05 26.68333 -80.11038 146 ft 129 kts 94°
2026-04-15 06:05 26.68285 -80.10037 32 ft 122 kts 95°
2026-04-15 06:05 26.68253 -80.09252 22 ft 77 kts 93°
2026-04-15 06:06 26.68235 -80.08844 22 ft 30 kts 92°
2026-04-15 06:06 26.68247 -80.08688 22 ft 17 kts 62°
2026-04-15 06:06 26.68323 -80.08654 22 ft 10 kts 326°
2026-04-15 06:06 26.68340 -80.08737 22 ft 12 kts 274°
2026-04-15 06:07 26.68345 -80.08838 22 ft 14 kts 272°
2026-04-15 06:07 26.68350 -80.08957 22 ft 16 kts 272°
2026-04-15 06:07 26.68355 -80.09093 22 ft 19 kts 272°
2026-04-15 06:07 26.68362 -80.09246 22 ft 18 kts 273°
2026-04-15 06:08 26.68392 -80.09352 23 ft 12 kts 315°
2026-04-15 06:08 26.68460 -80.09382 22 ft 10 kts 26°
2026-04-15 06:08 26.68489 -80.09350 23 ft 0 kts 46°
2026-04-15 06:08 26.68498 -80.09342 22 ft 5 kts 33°
2026-04-15 06:09 26.68537 -80.09358 22 ft 8 kts 313°
2026-04-15 06:09 26.68578 -80.09411 22 ft 10 kts 314°
2026-04-15 06:09 26.68632 -80.09466 22 ft 11 kts 318°
2026-04-15 06:09 26.68688 -80.09509 24 ft 9 kts 358°
2026-04-15 06:10 26.68737 -80.09455 22 ft 12 kts 47°
2026-04-15 06:10 26.68788 -80.09394 22 ft 8 kts 47°
2026-04-15 06:10 26.68807 -80.09350 22 ft 6 kts 94°
2026-04-15 06:10 26.68776 -80.09310 22 ft 6 kts 138°
2026-04-15 06:11 26.68756 -80.09289 22 ft 3 kts 137°
2026-04-15 06:11 26.68753 -80.09286 22 ft 0 kts 137°